Wind_Speed
37 37 36 36 36 36 36 35 34 33 32 31 29 28 28 28 28 29 29 30 30 29 27 26 25 24 24 24 24 24 24 24 25 25 26 26 25 25 25 25 25 25
39 38 38 37 37 37 37 37 37 36 36 34 33 31 30 30 30 31 31 31 32 32 31 30 29 28 27 26 26 26 27 27 27 27 28 28 29 28 29 29 28 29
40 40 40 40 39 39 38 37 38 38 38 38 37 36 34 34 33 33 33 33 33 34 33 33 33 32 31 30 30 29 29 30 30 30 30 31 31 31 32 32 32 32
42 42 42 42 41 41 40 39 39 39 39 40 39 39 38 37 37 36 36 36 36 36 36 36 36 36 35 35 34 33 33 33 33 33 32 33 34 34 34 35 35 35
44 43 42 42 42 42 41 41 40 40 40 40 40 40 40 39 39 39 38 38 38 38 38 38 38 39 39 38 37 37 37 37 37 37 36 35 36 37 37 37 38 38
46 45 44 42 42 42 42 42 41 41 40 40 40 40 40 40 40 40 40 39 40 40 40 40 40 41 41 41 40 40 40 40 41 41 39 39 39 39 39 40 40 40
49 48 46 44 42 41 41 41 41 41 40 39 39 40 40 40 40 40 40 40 41 41 42 42 42 42 42 42 42 42 42 42 43 43 42 41 41 42 42 42 42 42
51 49 47 45 43 42 41 40 40 40 40 39 38 38 38 39 39 40 40 41 41 42 43 43 43 43 43 43 43 43 43 43 44 44 44 43 43 43 44 45 44 44
50 49 48 46 44 42 41 41 40 39 39 39 38 38 38 38 39 39 40 41 41 42 43 44 44 44 44 44 44 44 44 44 45 45 45 45 45 44 44 46 46 45
49 48 47 46 44 43 42 41 41 40 40 40 40 40 40 40 40 41 41 42 42 43 44 45 45 45 45 45 45 45 46 46 46 47 46 46 46 46 46 46 46 46
47 47 46 46 45 44 43 42 42 41 41 41 42 43 44 45 45 45 45 45 45 45 46 46 47 48 47 47 47 47 47 47 48 49 49 48 48 47 47 47 47 47
46 45 45 46 46 45 45 44 44 44 44 44 45 45 46 48 49 49 49 49 48 49 49 50 50 51 50 50 50 50 50 50 50 51 51 51 51 50 49 49 49 49
46 45 45 45 45 46 46 46 46 46 46 47 47 48 49 49 50 51 51 51 51 51 51 52 53 53 53 53 54 54 54 53 52 53 53 54 54 53 53 52 52 51
49 48 46 45 45 46 46 47 47 48 48 49 49 50 50 51 51 52 52 52 52 52 53 53 54 54 54 54 55 56 56 56 55 55 55 55 55 56 56 55 54 53
52 51 50 49 48 48 48 48 49 50 50 51 51 52 52 52 53 53 53 54 54 54 55 55 55 55 54 53 54 56 57 57 57 57 57 57 57 57 57 57 56 55
54 54 53 53 52 52 51 51 51 52 52 53 54 54 54 55 55 56 56 56 56 56 56 56 56 54 53 52 52 53 54 56 56 57 58 58 58 58 58 57 56 55
57 57 56 56 56 56 56 55 55 55 55 56 57 57 57 58 58 59 59 59 58 58 57 57 56 55 53 53 52 52 53 53 54 55 56 56 56 56 56 56 55 55
59 59 60 60 60 60 60 59 59 59 59 59 59 60 60 60 60 60 60 60 59 58 58 57 56 55 55 55 55 55 55 55 55 55 56 56 56 56 55 55 55 56
62 62 63 63 63 63 63 63 62 62 62 62 62 61 61 61 61 61 60 59 59 58 58 57 56 56 56 57 57 58 58 58 58 58 57 57 57 57 57 57 57 57
64 64 64 64 64 64 65 64 64 64 64 64 64 63 63 62 62 61 60 59 59 59 58 58 57 57 58 58 59 60 60 61 61 61 61 60 60 60 59 59 59 59
64 63 63 63 64 64 64 64 64 64 64 64 64 64 64 63 62 61 60 59 59 59 58 58 58 59 60 60 61 62 63 64 64 65 64 64 64 63 63 63 63 63
63 63 63 63 63 64 64 64 64 63 64 64 64 63 63 62 61 61 60 59 59 59 59 58 59 60 61 62 63 64 65 65 66 67 67 67 66 66 66 67 67 68
63 63 63 63 64 64 64 64 64 64 64 65 64 64 63 62 62 61 61 61 61 61 61 61 61 62 63 64 65 66 67 67 67 68 68 68 68 68 69 69 69 70
63 64 64 64 64 64 64 65 65 65 65 66 66 66 65 64 64 63 63 64 64 64 65 65 64 65 66 67 67 68 69 69 70 70 70 70 70 70 70 71 71 71
63 63 64 64 64 65 65 66 67 67 67 67 67 67 67 67 66 66 66 66 67 68 68 69 69 69 70 71 71 71 72 72 72 73 73 73 73 73 73 73 74 74
65 64 64 64 65 65 66 67 68 69 69 69 69 69 69 69 69 69 69 69 70 71 71 72 73 73 74 75 75 75 76 76 76 76 77 77 77 77 77 77 77 78
Wind_Direction
317 316 315 314 313 312 311 311 310 308 307 306 304 302 302 302 302 302 303 304 305 306 306 305 305 304 302 300 298 295 294 293 293 293 293 293 293 292 292 292 292 292
315 315 314 313 311 310 309 309 308 307 306 306 304 301 299 298 297 297 298 298 299 300 301 301 300 299 298 297 296 294 292 291 290 290 290 290 290 290 291 291 291 291
315 314 313 312 311 310 308 307 306 306 306 306 305 304 301 299 297 297 296 296 296 296 296 297 296 296 295 294 293 292 291 290 288 288 287 288 288 288 289 289 290 290
314 313 312 311 309 308 307 306 305 305 306 306 306 305 303 302 301 300 299 297 296 295 295 294 294 293 293 292 292 291 290 289 288 287 286 286 285 285 286 287 287 288
313 312 311 310 308 307 305 304 303 304 305 305 305 305 303 303 302 301 301 300 298 297 295 294 293 292 292 292 292 291 291 290 289 288 288 286 285 284 284 284 284 285
312 311 310 309 307 306 305 303 302 302 303 303 303 303 302 302 302 301 301 300 299 298 296 294 293 292 292 292 292 292 291 291 291 291 290 289 288 286 285 284 283 283
310 309 309 308 307 305 304 303 301 300 300 301 300 300 300 300 300 300 300 299 298 297 296 295 294 292 292 291 291 291 291 291 291 291 291 290 289 288 286 284 283 283
308 307 306 306 305 304 303 301 300 299 299 299 299 298 299 299 299 299 298 297 296 296 295 294 293 293 292 291 290 290 290 290 290 289 289 289 288 287 286 284 282 282
306 305 305 304 303 302 300 299 297 297 297 297 297 297 296 296 296 296 295 294 293 292 292 292 292 291 290 289 289 288 288 288 287 287 287 286 286 286 284 283 283 282
305 304 303 301 300 299 297 296 295 294 294 295 295 295 295 294 293 292 291 290 290 290 289 290 290 289 288 287 286 286 285 285 285 284 284 283 284 284 283 282 282 282
305 304 303 301 299 297 295 293 292 291 291 292 293 294 295 295 294 293 292 291 290 290 289 289 288 288 287 286 285 283 282 282 281 281 281 281 281 281 282 282 282 282
304 304 303 301 299 296 294 291 290 289 290 291 292 293 293 294 294 293 293 293 292 291 291 290 289 288 287 286 285 283 282 280 279 279 280 280 281 281 281 282 282 283
303 303 302 300 299 296 292 290 288 288 289 290 291 292 292 292 293 293 293 293 292 291 290 290 289 288 287 287 286 284 283 282 281 281 281 281 282 282 282 282 283 283
302 302 301 300 298 296 292 289 287 286 286 288 289 290 290 291 292 292 293 293 292 291 290 289 288 287 286 285 285 284 284 283 283 283 282 282 282 283 283 283 284 284
300 300 299 298 298 296 293 290 287 285 284 285 287 288 289 290 291 292 292 292 292 291 291 289 288 286 285 283 282 282 282 282 283 283 283 283 283 283 284 284 284 284
298 298 298 297 297 296 295 293 290 287 285 284 285 286 287 289 290 291 291 291 291 291 291 290 289 288 285 283 282 280 280 281 282 282 283 283 283 283 283 283 283 282
296 297 297 297 296 296 295 294 293 291 289 287 286 286 287 288 289 290 290 290 290 290 290 289 289 288 286 284 283 281 281 281 281 282 282 282 281 281 280 280 280 280
296 296 296 296 296 295 294 294 293 292 291 290 289 288 288 288 288 289 289 289 289 289 289 288 288 287 286 285 284 284 283 282 282 282 282 281 281 280 279 278 278 277
296 295 295 295 294 294 293 293 292 292 291 291 290 290 289 289 288 288 288 287 287 287 287 287 286 285 285 285 285 285 285 284 283 283 282 281 280 279 278 278 277 276
295 294 294 294 293 293 292 291 291 290 290 290 290 290 290 289 289 288 287 287 286 286 286 285 284 284 284 284 285 285 285 285 284 284 283 282 281 280 278 277 277 276
294 294 293 293 292 291 290 289 289 288 288 289 289 289 289 289 288 288 287 286 285 285 285 284 283 283 283 284 284 284 284 284 284 284 284 283 282 281 280 278 277 276
294 294 293 292 291 290 289 288 287 286 286 286 287 287 287 287 287 286 286 285 284 284 283 283 282 282 283 283 283 283 283 283 283 283 283 283 283 282 281 280 279 278
295 294 293 293 291 290 288 287 285 285 284 284 284 284 284 284 284 284 284 284 284 283 283 283 282 282 282 283 283 283 283 282 282 282 282 283 282 282 282 281 281 280
295 294 294 293 292 290 289 287 286 285 284 283 283 283 282 282 281 282 282 282 283 283 283 283 283 282 283 283 283 283 282 282 282 282 282 282 281 281 281 281 281 280
295 295 294 293 292 291 289 288 287 286 285 284 283 282 282 281 281 281 281 281 282 282 283 283 283 283 283 283 283 283 283 282 282 282 282 281 281 281 281 280 280 280
295 294 294 293 291 290 289 288 287 286 285 284 283 282 281 280 280 280 281 281 282 282 283 283 284 284 284 284 284 284 284 283 283 282 282 282 281 281 281 281 280 280
Height
5763 5761 5759 5757 5755 5754 5752 5751 5749 5747 5746 5744 5743 5742 5741 5740 5739 5737 5736 5735 5734 5733 5732 5731 5730 5729 5728 5727 5726 5724 5723 5722 5721 5720 5719 5718 5717 5716 5715 5714 5713 5712
5760 5758 5756 5754 5752 5750 5749 5747 5746 5744 5743 5741 5740 5738 5737 5736 5735 5734 5732 5731 5730 5729 5728 5727 5726 5725 5724 5723 5722 5721 5720 5719 5717 5716 5715 5714 5713 5712 5711 5710 5709 5708
5756 5754 5752 5750 5748 5746 5745 5743 5742 5740 5739 5738 5736 5735 5733 5732 5731 5730 5728 5727 5726 5725 5724 5723 5722 5721 5720 5719 5718 5717 5716 5714 5713 5712 5711 5710 5708 5708 5706 5705 5704 5703
5753 5751 5749 5747 5744 5742 5741 5739 5737 5736 5735 5734 5732 5731 5730 5728 5727 5726 5724 5723 5722 5721 5720 5719 5718 5716 5715 5714 5714 5713 5711 5710 5709 5708 5707 5706 5704 5703 5702 5701 5699 5698
5748 5746 5745 5743 5741 5739 5737 5735 5733 5732 5730 5729 5728 5727 5725 5724 5722 5721 5720 5719 5718 5717 5716 5714 5713 5712 5710 5709 5709 5708 5706 5705 5703 5702 5702 5701 5699 5698 5697 5695 5694 5693
5743 5741 5740 5738 5736 5735 5733 5731 5729 5727 5726 5725 5724 5722 5720 5719 5718 5716 5715 5714 5713 5712 5711 5709 5708 5707 5705 5704 5703 5703 5701 5700 5698 5697 5696 5695 5694 5693 5691 5690 5689 5687
5737 5735 5734 5733 5731 5730 5728 5727 5725 5723 5722 5720 5719 5717 5716 5714 5713 5711 5710 5709 5708 5707 5705 5704 5702 5701 5700 5699 5698 5697 5695 5694 5692 5690 5690 5689 5687 5686 5684 5683 5682 5681
5732 5730 5728 5727 5725 5724 5723 5721 5719 5718 5716 5715 5714 5712 5711 5709 5708 5707 5705 5704 5702 5701 5699 5698 5697 5695 5694 5693 5692 5691 5689 5688 5686 5684 5683 5682 5680 5679 5677 5675 5674 5674
5728 5725 5723 5721 5720 5718 5717 5715 5713 5712 5710 5709 5708 5707 5705 5704 5702 5701 5699 5698 5696 5695 5693 5691 5690 5689 5688 5686 5685 5684 5682 5681 5679 5677 5676 5675 5673 5672 5670 5668 5667 5667
5722 5720 5718 5716 5714 5712 5711 5709 5707 5706 5704 5703 5702 5700 5699 5697 5696 5695 5693 5692 5690 5688 5687 5685 5684 5682 5681 5680 5678 5677 5675 5674 5672 5670 5669 5668 5666 5665 5663 5661 5660 5659
5717 5715 5712 5710 5708 5706 5705 5703 5702 5700 5699 5697 5696 5694 5693 5691 5689 5688 5686 5685 5684 5682 5680 5679 5677 5675 5674 5673 5671 5669 5668 5666 5664 5662 5661 5660 5659 5658 5656 5654 5653 5652
5712 5709 5707 5704 5703 5701 5699 5697 5696 5694 5693 5691 5690 5688 5687 5685 5683 5681 5679 5678 5677 5675 5674 5672 5670 5668 5667 5666 5664 5662 5660 5658 5657 5655 5653 5652 5651 5650 5649 5647 5646 5645
5706 5704 5701 5699 5697 5695 5693 5691 5690 5688 5687 5685 5684 5682 5680 5679 5677 5675 5673 5672 5670 5669 5667 5665 5663 5661 5660 5658 5656 5654 5652 5651 5649 5647 5646 5644 5643 5642 5641 5640 5638 5637
5700 5698 5695 5693 5691 5689 5687 5685 5684 5682 5680 5679 5677 5675 5673 5672 5670 5668 5667 5665 5663 5661 5660 5658 5656 5655 5653 5651 5649 5647 5644 5643 5641 5639 5638 5636 5635 5634 5633 5632 5631 5630
5694 5691 5689 5687 5685 5683 5681 5679 5677 5675 5674 5672 5670 5668 5666 5665 5663 5661 5659 5657 5655 5653 5652 5650 5648 5647 5645 5644 5642 5640 5637 5635 5634 5632 5630 5629 5628 5627 5625 5624 5623 5622
5688 5685 5683 5681 5679 5677 5675 5673 5671 5669 5667 5665 5663 5661 5659 5657 5656 5653 5651 5650 5648 5646 5643 5642 5640 5638 5636 5635 5634 5632 5630 5628 5627 5625 5624 5622 5621 5620 5618 5617 5615 5613
5682 5679 5677 5674 5672 5670 5668 5666 5664 5662 5660 5658 5656 5654 5652 5650 5648 5646 5644 5642 5640 5638 5636 5633 5631 5629 5627 5626 5625 5623 5623 5622 5620 5619 5617 5616 5615 5613 5612 5610 5607 5606
5675 5672 5670 5667 5665 5663 5661 5659 5657 5654 5652 5651 5649 5646 5644 5642 5640 5638 5636 5633 5632 5630 5628 5626 5623 5620 5618 5617 5615 5614 5613 5613 5613 5612 5610 5608 5607 5605 5604 5602 5600 5598
5667 5665 5662 5660 5657 5655 5653 5651 5649 5647 5645 5643 5641 5639 5636 5634 5632 5630 5628 5625 5624 5622 5620 5618 5615 5612 5610 5608 5606 5605 5603 5602 5603 5602 5601 5600 5598 5596 5595 5593 5592 5590
5659 5657 5654 5652 5649 5647 5645 5643 5641 5639 5637 5635 5633 5631 5628 5626 5624 5622 5620 5617 5615 5614 5612 5610 5607 5604 5602 5600 5598 5596 5594 5593 5592 5592 5591 5590 5589 5587 5586 5584 5582 5580
5651 5649 5646 5644 5641 5639 5637 5634 5632 5630 5628 5626 5625 5622 5620 5618 5616 5614 5612 5609 5607 5605 5604 5602 5598 5595 5593 5590 5588 5587 5585 5584 5583 5582 5581 5581 5579 5578 5576 5574 5573 5570
5643 5641 5638 5636 5633 5631 5629 5626 5623 5621 5619 5618 5616 5614 5611 5609 5607 5605 5602 5600 5598 5596 5594 5593 5590 5586 5583 5581 5579 5576 5575 5574 5573 5572 5571 5570 5569 5568 5565 5564 5563 5560
5634 5632 5630 5628 5625 5623 5621 5618 5615 5613 5610 5608 5607 5605 5602 5600 5598 5596 5593 5591 5589 5586 5584 5584 5581 5577 5574 5571 5569 5566 5564 5563 5562 5561 5561 5559 5558 5557 5554 5553 5552 5549
5625 5622 5620 5618 5615 5613 5611 5609 5606 5604 5602 5599 5598 5596 5594 5591 5589 5587 5584 5581 5579 5577 5575 5573 5572 5568 5564 5561 5559 5555 5553 5552 5550 5550 5549 5548 5547 5546 5544 5542 5540 5538
5616 5613 5610 5608 5606 5603 5601 5599 5597 5594 5592 5590 5588 5586 5584 5582 5580 5578 5576 5573 5570 5568 5565 5562 5561 5558 5553 5550 5548 5544 5541 5540 5539 5537 5537 5536 5535 5534 5533 5531 5528 5526
5607 5604 5601 5599 5596 5594 5592 5589 5587 5584 5582 5580 5578 5576 5574 5572 5570 5567 5566 5563 5560 5557 5554 5551 5549 5547 5543 5539 5536 5533 5529 5527 5526 5525 5523 5522 5523 5522 5521 5519 5517 5514